GW1068 Weather Reports


Display with metric or nautical units.
time (UTC)temp
F
wind
direction
speed
MPH
gust
MPH
rain 1hr
in
rain 24hr
in
rain mn
in
humidity
%
barometer
mb
20260506211147 94 251 3.0 5.0 0.00 0.00 0.00 39 1013.4
20260506210644 93 209 1.0 2.0 0.00 0.00 0.00 39 1013.5
20260506210140 93 307 3.0 3.0 0.00 0.00 0.00 41 1013.4
20260506205638 93 311 2.0 2.0 0.00 0.00 0.00 41 1013.5
20260506205137 93 251 2.0 2.0 0.00 0.00 0.00 40 1013.4
20260506204636 94 267 4.0 6.0 0.00 0.00 0.00 40 1013.5
20260506204132 95 232 2.0 3.0 0.00 0.00 0.00 38 1013.5
20260506203631 94 134 4.0 5.0 0.00 0.00 0.00 37 1013.4
20260506203127 94 312 1.0 1.0 0.00 0.00 0.00 36 1013.5
20260506202625 94 113 2.0 2.0 0.00 0.00 0.00 36 1013.5
20260506202121 93 331 3.0 5.0 0.00 0.00 0.00 37 1013.5
20260506201618 94 163 3.0 3.0 0.00 0.00 0.00 38 1013.6
20260506201115 95 287 1.0 2.0 0.00 0.00 0.00 38 1013.6
20260506200611 96 188 4.0 6.0 0.00 0.00 0.00 37 1013.6
20260506200108 95 305 2.0 3.0 0.00 0.00 0.00 38 1013.6
20260506195604 93 267 2.0 2.0 0.00 0.00 0.00 38 1013.8
20260506195101 93 273 3.0 3.0 0.00 0.00 0.00 40 1013.7
20260506194559 94 246 2.0 3.0 0.00 0.00 0.00 38 1013.9
20260506194055 94 284 3.0 5.0 0.00 0.00 0.00 38 1013.8
20260506193553 94 311 2.0 3.0 0.00 0.00 0.00 39 1013.7
20260506193050 92 297 1.0 1.0 0.00 0.00 0.00 41 1013.8
20260506192546 93 248 1.0 1.0 0.00 0.00 0.00 40 1013.9
20260506192042 93 197 3.0 3.0 0.00 0.00 0.00 41 1013.9
20260506191539 93 232 2.0 3.0 0.00 0.00 0.00 40 1014.1
20260506191035 94 275 3.0 3.0 0.00 0.00 0.00 38 1014.2
20260506190532 93 276 3.0 3.0 0.00 0.00 0.00 40 1014.3
20260506190030 93 267 0.0 0.0 0.00 0.00 0.00 41 1014.4
20260506185527 94 182 2.0 3.0 0.00 0.00 0.00 39 1014.3
20260506185023 93 287 1.0 1.0 0.00 0.00 0.00 41 1014.2
20260506184520 92 49 3.0 5.0 0.00 0.00 0.00 43 1014.4
20260506184018 93 116 2.0 3.0 0.00 0.00 0.00 42 1014.4
20260506183513 92 270 1.0 2.0 0.00 0.00 0.00 42 1014.5
20260506183010 93 198 3.0 3.0 0.00 0.00 0.00 44 1014.7
20260506182508 92 194 2.0 3.0 0.00 0.00 0.00 43 1014.8
20260506182004 94 219 3.0 3.0 0.00 0.00 0.00 41 1014.7
20260506181502 93 275 3.0 3.0 0.00 0.00 0.00 41 1014.7
20260506180959 93 169 1.0 2.0 0.00 0.00 0.00 41 1014.7
20260506180456 92 302 0.0 1.0 0.00 0.00 0.00 43 1014.8
20260506175952 92 52 4.0 5.0 0.00 0.00 0.00 44 1014.7
20260506175449 92 245 1.0 2.0 0.00 0.00 0.00 44 1014.8
20260506174945 90 44 1.0 2.0 0.00 0.00 0.00 44 1014.8
20260506174444 91 67 2.0 2.0 0.00 0.00 0.00 43 1015.0
20260506173940 91 276 2.0 3.0 0.00 0.00 0.00 46 1014.9
20260506173438 91 332 1.0 1.0 0.00 0.00 0.00 47 1015.0
20260506172934 92 244 1.0 1.0 0.00 0.00 0.00 47 1015.1
20260506172431 92 294 1.0 1.0 0.00 0.00 0.00 46 1015.2
20260506171923 90 199 3.0 3.0 0.00 0.00 0.00 48 1015.3
20260506171420 89 280 0.0 0.0 0.00 0.00 0.00 50 1015.3
20260506170917 89 286 3.0 3.0 0.00 0.00 0.00 49 1015.5
20260506170413 89 10 4.0 5.0 0.00 0.00 0.00 49 1015.4
20260506165912 88 312 3.0 3.0 0.00 0.00 0.00 51 1015.7
20260506165410 88 315 1.0 1.0 0.00 0.00 0.00 53 1015.5
20260506164906 89 208 3.0 5.0 0.00 0.00 0.00 50 1015.7
20260506164403 87 184 1.0 2.0 0.00 0.00 0.00 52 1015.7
20260506163901 87 279 2.0 2.0 0.00 0.00 0.00 52 1015.6
20260506163355 87 244 4.0 6.0 0.00 0.00 0.00 53 1015.9
20260506162845 87 180 1.0 1.0 0.00 0.00 0.00 52 1015.8
20260506162343 88 209 4.0 6.0 0.00 0.00 0.00 53 1015.8
20260506161840 87 249 1.0 1.0 0.00 0.00 0.00 53 1015.8
20260506161337 85 330 1.0 2.0 0.00 0.00 0.00 55 1015.8
20260506160830 86 14 1.0 1.0 0.00 0.00 0.00 55 1016.1
20260506160326 87 319 3.0 5.0 0.00 0.00 0.00 54 1016.3
20260506155825 86 270 1.0 1.0 0.00 0.00 0.00 55 1016.1
20260506155321 86 122 4.0 5.0 0.00 0.00 0.00 55 1016.1
20260506153438 85 274 4.0 6.0 0.00 0.00 0.00 57 1016.2
20260506152936 85 206 2.0 2.0 0.00 0.00 0.00 57 1016.3
20260506152432 85 262 1.0 2.0 0.00 0.00 0.00 57 1016.3
20260506151931 84 129 4.0 6.0 0.00 0.00 0.00 58 1016.3
20260506151428 84 214 1.0 1.0 0.00 0.00 0.00 59 1016.3
20260506150926 83 236 5.0 6.0 0.00 0.00 0.00 59 1016.1
20260506150422 84 177 3.0 5.0 0.00 0.00 0.00 58 1016.3
20260506145919 83 275 1.0 1.0 0.00 0.00 0.00 60 1016.1
20260506145415 84 159 3.0 3.0 0.00 0.00 0.00 61 1016.1
20260506144913 83 270 0.0 0.0 0.00 0.00 0.00 60 1016.1
20260506144409 82 235 2.0 2.0 0.00 0.00 0.00 62 1016.1
20260506143907 81 275 1.0 2.0 0.00 0.00 0.00 63 1015.9
20260506143404 82 247 3.0 5.0 0.00 0.00 0.00 61 1015.6
20260506142902 81 106 2.0 3.0 0.00 0.00 0.00 63 1015.8
20260506142400 80 108 1.0 2.0 0.00 0.00 0.00 64 1015.7
20260506141858 80 256 2.0 2.0 0.00 0.00 0.00 65 1015.8
20260506141355 80 279 3.0 5.0 0.00 0.00 0.00 65 1015.6
20260506140853 79 221 3.0 3.0 0.00 0.00 0.00 66 1015.7
20260506140350 79 267 1.0 1.0 0.00 0.00 0.00 66 1015.8
20260506135847 78 261 3.0 3.0 0.00 0.00 0.00 68 1016.1
20260506135344 78 296 0.0 0.0 0.00 0.00 0.00 68 1015.8
20260506134840 78 270 1.0 1.0 0.00 0.00 0.00 69 1016.1
20260506134336 77 246 1.0 1.0 0.00 0.00 0.00 69 1015.8
20260506133834 77 349 1.0 2.0 0.00 0.00 0.00 70 1015.9
20260506133330 76 238 0.0 0.0 0.00 0.00 0.00 70 1015.7
20260506132827 76 140 1.0 2.0 0.00 0.00 0.00 71 1015.7
20260506132324 75 197 4.0 5.0 0.00 0.00 0.00 72 1015.9
20260506131822 75 233 4.0 7.0 0.00 0.00 0.00 72 1015.8
20260506131318 74 278 1.0 2.0 0.00 0.00 0.00 72 1015.7
20260506130816 74 292 1.0 2.0 0.00 0.00 0.00 72 1015.7
20260506130312 74 300 0.0 0.0 0.00 0.00 0.00 72 1015.5
20260506125810 73 282 3.0 3.0 0.00 0.00 0.00 73 1015.7
20260506125308 73 217 2.0 2.0 0.00 0.00 0.00 72 1015.5
20260506124806 72 260 0.0 1.0 0.00 0.00 0.00 72 1015.5
20260506124303 71 276 0.0 0.0 0.00 0.00 0.00 74 1015.4
20260506123800 71 287 0.0 0.0 0.00 0.00 0.00 74 1015.2
20260506123259 70 145 3.0 3.0 0.00 0.00 0.00 74 1015.3
20260506122755 69 277 1.0 1.0 0.00 0.00 0.00 75 1015.3
20260506122252 69 246 1.0 2.0 0.00 0.00 0.00 76 1015.6
20260506121751 68 315 0.0 0.0 0.00 0.00 0.00 77 1015.4
20260506121247 67 279 0.0 0.0 0.00 0.00 0.00 78 1015.3
20260506120744 66 285 0.0 0.0 0.00 0.00 0.00 80 1015.3
20260506120242 64 287 0.0 0.0 0.00 0.00 0.00 82 1015.3
20260506115740 64 288 0.0 0.0 0.00 0.00 0.00 83 1015.4
20260506115238 63 288 0.0 0.0 0.00 0.00 0.00 83 1015.2
20260506114735 63 288 0.0 0.0 0.00 0.00 0.00 84 1015.2
20260506114233 62 288 0.0 0.0 0.00 0.00 0.00 85 1015.1
20260506113731 62 288 0.0 0.0 0.00 0.00 0.00 86 1014.9
20260506113228 61 288 0.0 0.0 0.00 0.00 0.00 86 1015.1
20260506112724 61 288 0.0 0.0 0.00 0.00 0.00 87 1014.8
20260506112222 60 288 0.0 0.0 0.00 0.00 0.00 87 1014.8
20260506111719 60 288 0.0 0.0 0.00 0.00 0.00 87 1014.9
20260506111218 60 288 0.0 0.0 0.00 0.00 0.00 87 1014.9
20260506110714 60 288 0.0 0.0 0.00 0.00 0.00 87 1014.8
20260506110212 60 288 0.0 0.0 0.00 0.00 0.00 87 1015.1
20260506105708 60 288 0.0 0.0 0.00 0.00 0.00 87 1014.7
20260506105205 60 288 0.0 0.0 0.00 0.00 0.00 88 1014.9
20260506104703 60 289 0.0 0.0 0.00 0.00 0.00 88 1014.9
20260506104200 60 289 0.0 0.0 0.00 0.00 0.00 87 1014.8
20260506103657 60 289 0.0 0.0 0.00 0.00 0.00 87 1014.6
20260506103154 60 289 0.0 0.0 0.00 0.00 0.00 87 1014.6
20260506102653 60 289 0.0 0.0 0.00 0.00 0.00 87 1014.5
20260506102151 60 289 0.0 0.0 0.00 0.00 0.00 87 1014.6
20260506101647 60 289 0.0 0.0 0.00 0.00 0.00 87 1014.5
20260506101144 60 289 0.0 0.0 0.00 0.00 0.00 87 1014.4
20260506100642 60 289 0.0 0.0 0.00 0.00 0.00 86 1014.6
20260506100139 60 286 0.0 0.0 0.00 0.00 0.00 86 1014.4
20260506095638 60 286 0.0 0.0 0.00 0.00 0.00 86 1014.2
20260506095134 60 286 0.0 0.0 0.00 0.00 0.00 86 1014.3
20260506094631 60 286 0.0 0.0 0.00 0.00 0.00 85 1014.4
20260506094129 60 286 0.0 0.0 0.00 0.00 0.00 86 1014.3
20260506093628 60 286 0.0 0.0 0.00 0.00 0.00 85 1014.4
20260506093125 60 286 0.0 0.0 0.00 0.00 0.00 85 1014.2
20260506092623 61 286 0.0 0.0 0.00 0.00 0.00 85 1014.3
20260506092120 61 286 0.0 0.0 0.00 0.00 0.00 84 1014.2
20260506091618 61 286 0.0 0.0 0.00 0.00 0.00 84 1014.4
20260506091115 61 286 0.0 0.0 0.00 0.00 0.00 84 1014.2
20260506090613 61 286 0.0 0.0 0.00 0.00 0.00 84 1014.3
20260506090108 61 286 0.0 0.0 0.00 0.00 0.00 84 1014.2
20260506085605 61 286 0.0 0.0 0.00 0.00 0.00 84 1014.4
20260506085101 61 286 0.0 0.0 0.00 0.00 0.00 83 1014.4
20260506084558 61 286 0.0 0.0 0.00 0.00 0.00 83 1014.5
20260506084055 61 286 0.0 0.0 0.00 0.00 0.00 83 1014.2
20260506083552 62 286 0.0 0.0 0.00 0.00 0.00 82 1014.3
20260506083049 62 286 0.0 0.0 0.00 0.00 0.00 82 1014.3
20260506082546 62 285 0.0 0.0 0.00 0.00 0.00 82 1014.3
20260506082042 62 285 0.0 0.0 0.00 0.00 0.00 82 1014.4
20260506081540 62 290 0.0 0.0 0.00 0.00 0.00 82 1014.3
20260506081037 62 290 0.0 0.0 0.00 0.00 0.00 81 1014.5
20260506080535 62 290 0.0 0.0 0.00 0.00 0.00 81 1014.5
20260506073518 62 290 0.0 0.0 0.00 0.00 0.00 80 1014.2
20260506073015 62 290 0.0 0.0 0.00 0.00 0.00 80 1014.2
20260506072512 63 290 0.0 0.0 0.00 0.00 0.00 80 1014.0
20260506072010 63 290 0.0 0.0 0.00 0.00 0.00 79 1014.1
20260506071508 63 291 0.0 0.0 0.00 0.00 0.00 79 1014.2
20260506071005 63 291 0.0 0.0 0.00 0.00 0.00 80 1014.2
20260506070502 63 290 0.0 0.0 0.00 0.00 0.00 79 1014.1
20260506062439 64 290 0.0 0.0 0.00 0.00 0.00 76 1014.8
20260506061935 64 290 0.0 0.0 0.00 0.00 0.00 77 1014.8
20260506061432 64 290 0.0 0.0 0.00 0.00 0.00 77 1014.8
20260506060930 64 290 0.0 0.0 0.00 0.00 0.00 76 1015.1
20260506060428 64 290 0.0 0.0 0.00 0.00 0.00 76 1015.0
20260506051400 66 290 0.0 0.0 0.00 0.00 0.00 71 1015.3
20260506050857 66 290 0.0 0.0 0.00 0.00 0.00 71 1015.4
20260506050354 67 290 0.0 0.0 0.00 0.00 0.00 70 1015.4
20260506044844 67 290 0.0 0.0 0.00 0.00 0.00 70 1015.3
20260506044343 67 290 0.0 0.0 0.00 0.00 0.00 69 1015.6
20260506043839 67 290 0.0 0.0 0.00 0.00 0.00 69 1015.5
20260506043337 67 290 0.0 0.0 0.00 0.00 0.00 69 1015.5
20260506042835 67 290 0.0 0.0 0.00 0.00 0.00 69 1015.7
20260506042334 68 290 0.0 0.0 0.00 0.00 0.00 68 1015.5
20260506041832 68 290 0.0 0.0 0.00 0.00 0.00 68 1015.5
20260506041328 68 291 0.0 0.0 0.00 0.00 0.00 68 1015.5
20260506040826 67 285 1.0 1.0 0.00 0.00 0.00 68 1015.5
20260506040324 68 300 0.0 0.0 0.00 0.00 0.00 69 1015.7
20260506035819 68 300 0.0 0.0 0.00 0.00 0.00 68 1015.5
20260506035317 68 300 0.0 0.0 0.00 0.00 0.00 68 1015.9
20260506034814 68 300 0.0 0.0 0.00 0.00 0.00 67 1015.6
20260506034311 69 300 0.0 0.0 0.00 0.00 0.00 66 1015.8
20260506033808 69 300 0.0 0.0 0.00 0.00 0.00 66 1015.9
20260506033305 69 299 0.0 0.0 0.00 0.00 0.00 66 1015.6
20260506032802 69 299 0.0 0.0 0.00 0.00 0.00 65 1015.8
20260506032259 69 299 0.0 0.0 0.00 0.00 0.00 64 1015.6
20260506031755 70 299 0.0 0.0 0.00 0.00 0.00 64 1015.5
20260506031252 70 299 0.0 0.0 0.00 0.00 0.00 64 1015.4
20260506030750 70 300 0.0 0.0 0.00 0.00 0.00 63 1015.3
20260506030248 71 295 0.0 0.0 0.00 0.00 0.00 63 1015.2
20260506025744 71 295 0.0 0.0 0.00 0.00 0.00 63 1015.0
20260506025241 71 295 0.0 0.0 0.00 0.00 0.00 62 1015.1
20260506024738 71 295 0.0 0.0 0.00 0.00 0.00 62 1015.1
20260506024235 72 294 0.0 0.0 0.00 0.00 0.00 61 1015.1
20260506023731 72 281 0.0 0.0 0.00 0.00 0.00 61 1015.0
20260506023229 72 272 0.0 0.0 0.00 0.00 0.00 61 1014.8
20260506022725 72 304 0.0 0.0 0.00 0.00 0.00 60 1015.0
20260506022223 73 304 0.0 0.0 0.00 0.00 0.00 60 1014.6
20260506021721 73 306 0.0 0.0 0.00 0.00 0.00 60 1014.8
20260506021218 73 291 0.0 0.0 0.00 0.00 0.00 60 1014.7
20260506020714 73 296 0.0 0.0 0.00 0.00 0.00 60 1014.6
20260506020212 73 294 0.0 0.0 0.00 0.00 0.00 60 1014.7
20260506015709 74 275 0.0 0.0 0.00 0.00 0.00 59 1014.4
20260506015207 74 262 0.0 0.0 0.00 0.00 0.00 59 1014.4
20260506014704 74 299 0.0 0.0 0.00 0.00 0.00 58 1014.3
20260506014159 75 297 0.0 0.0 0.00 0.00 0.00 58 1014.6
20260506013657 75 272 1.0 1.0 0.00 0.00 0.00 57 1014.4
20260506013154 75 276 0.0 0.0 0.00 0.00 0.00 57 1014.8
20260506012650 76 277 0.0 0.0 0.00 0.00 0.00 56 1014.5
20260506012147 76 160 3.0 3.0 0.00 0.00 0.00 56 1014.4
20260506011645 76 278 0.0 0.0 0.00 0.00 0.00 56 1014.3
20260506011141 77 90 0.0 1.0 0.00 0.00 0.00 55 1014.2
20260506010640 77 292 0.0 0.0 0.00 0.00 0.00 55 1014.4
20260506010136 77 320 1.0 2.0 0.00 0.00 0.00 54 1014.2
20260506005633 78 286 0.0 0.0 0.00 0.00 0.00 54 1014.2
20260506005130 78 306 0.0 0.0 0.00 0.00 0.00 53 1014.1
20260506004626 78 285 0.0 0.0 0.00 0.00 0.00 53 1014.2
20260506004124 78 27 1.0 1.0 0.00 0.00 0.00 52 1014.3
20260506003620 78 289 0.0 0.0 0.00 0.00 0.00 52 1014.2
20260506003116 79 256 1.0 1.0 0.00 0.00 0.00 52 1013.8
20260506002612 79 4 1.0 1.0 0.00 0.00 0.00 51 1013.7
20260506002108 80 148 1.0 2.0 0.00 0.00 0.00 51 1013.7
20260506001604 80 266 1.0 1.0 0.00 0.00 0.00 51 1013.5
20260506001102 81 7 0.0 0.0 0.00 0.00 0.00 49 1013.7
20260506000559 82 275 0.0 1.0 0.00 0.00 0.00 49 1013.4
20260506000051 82 301 0.0 0.0 0.00 0.00 0.00 47 1013.1
20260505235549 82 294 0.0 0.0 0.00 0.00 0.00 46 1012.9
20260505235046 83 276 0.0 0.0 0.00 0.00 0.00 47 1013.0
20260505234543 83 276 0.0 0.0 0.00 0.00 0.00 44 1012.8
20260505234039 83 256 1.0 1.0 0.00 0.00 0.00 44 1012.8
20260505233536 83 293 1.0 1.0 0.00 0.00 0.00 44 1012.8
20260505233034 83 291 0.0 1.0 0.00 0.00 0.00 43 1012.8
20260505232532 84 282 0.0 0.0 0.00 0.00 0.00 43 1012.6
20260505232029 84 299 0.0 0.0 0.00 0.00 0.00 42 1013.0
20260505231526 84 269 0.0 0.0 0.00 0.00 0.00 41 1012.8
20260505231025 84 271 0.0 0.0 0.00 0.00 0.00 41 1012.8
20260505230521 84 266 0.0 0.0 0.00 0.00 0.00 45 1012.7
20260505230017 84 281 0.0 0.0 0.00 0.00 0.00 41 1012.6
20260505225509 84 284 0.0 0.0 0.00 0.00 0.00 41 1012.8
20260505225005 84 269 0.0 0.0 0.00 0.00 0.00 41 1012.8
20260505224502 84 275 0.0 0.0 0.00 0.00 0.00 45 1012.9
20260505223959 84 286 0.0 0.0 0.00 0.00 0.00 44 1012.6
20260505223456 84 263 0.0 0.0 0.00 0.00 0.00 41 1012.7
20260505222952 84 266 0.0 0.0 0.00 0.00 0.00 43 1012.9
20260505222449 85 265 0.0 0.0 0.00 0.00 0.00 42 1012.8
20260505221945 85 297 0.0 0.0 0.00 0.00 0.00 40 1012.5
20260505221442 85 274 0.0 0.0 0.00 0.00 0.00 40 1012.7
20260505220939 85 257 1.0 1.0 0.00 0.00 0.00 40 1012.6
20260505220436 85 272 1.0 1.0 0.00 0.00 0.00 40 1012.7
20260505215934 85 283 0.0 0.0 0.00 0.00 0.00 41 1012.8
20260505215432 85 258 0.0 0.0 0.00 0.00 0.00 41 1012.9
20260505214929 85 262 2.0 2.0 0.00 0.00 0.00 40 1012.8
20260505214427 85 240 1.0 1.0 0.00 0.00 0.00 42 1012.7
20260505213924 85 268 0.0 0.0 0.00 0.00 0.00 41 1012.8
20260505213422 85 262 0.0 1.0 0.00 0.00 0.00 40 1012.7
20260505212918 85 267 0.0 0.0 0.00 0.00 0.00 42 1012.8
20260505212415 85 273 0.0 1.0 0.00 0.00 0.00 40 1012.8
20260505211911 86 304 0.0 1.0 0.00 0.00 0.00 39 1012.9